Weather observations for the past three days for
Teterboro, Teterboro Airport
Imperial (Metric)
Date Time (edt) Wind (mph) Vis. (mi.) Weather Sky Cond. Temperature (ºF) Relative Humidity Wind Chill (°F) Heat Index (°F) Pressure Precipitation (in)
Air Dwpt 6 hour altimeter (in) sea level (mb) 1 hr 3 hr 6 hr
Max. Min.
19 12:51 S 6 10.00 Fair CLR 88 69.1 54% 92 30.3 1026.1
19 11:51 S 8 10.00 Fair CLR 86 68 55% 89 30.32 1026.6
19 10:51 Vrbl 5 10.00 Fair CLR 82.9 66.9 59% 86 30.33 1026.9
19 09:51 S 7 10.00 Fair CLR 79 66.9 67% 81 30.34 1027.3
19 08:51 S 8 10.00 Fair CLR 77 66 69% 79 30.34 1027.4
19 07:51 S 7 10.00 Fair CLR 75 64.9 75 70 71% 77 30.34 1027.2
19 06:51 SW 7 10.00 Fair CLR 73 64 74% 30.32 1026.7
19 05:51 S 5 10.00 Fair CLR 71.1 63 76% 30.31 1026.4
19 04:51 S 6 10.00 Fair CLR 71.1 62.1 73% 30.3 1025.9
19 03:51 Calm 10.00 Fair CLR 71.1 61 71% 30.29 1025.6
19 02:51 S 6 10.00 Fair CLR 72 57.9 61% 30.28 1025.2
19 01:51 S 8 10.00 Fair CLR 73.9 57.9 82.9 73.9 57% 30.27 1024.8
19 00:51 S 7 10.00 Fair CLR 75 57.9 55% 78 30.27 1024.9
18 23:51 S 8 10.00 Fair CLR 77 60.1 56% 79 30.26 1024.8
18 22:51 S 7 10.00 Fair CLR 78.1 63 60% 80 30.26 1024.5
18 21:51 S 10 10.00 Fair CLR 80.1 64 58% 82 30.24 1023.9
18 20:51 S 9 10.00 Fair CLR 81 64 57% 83 30.21 1023.0
18 19:51 S 9 10.00 Fair CLR 82.9 64.9 93 82.9 55% 85 30.21 1022.8
18 18:51 SE 9 G 21 10.00 Fair CLR 86 66.9 53% 89 30.19 1022.2
18 17:51 S 13 G 25 10.00 Fair CLR 88 68 52% 92 30.18 1022.1
18 16:51 SE 12 10.00 Fair CLR 87.1 69.1 55% 91 30.19 1022.2
18 15:51 S 10 G 26 10.00 Fair CLR 88 71.1 57% 94 30.19 1022.3
18 14:51 S 12 G 31 10.00 Fair CLR 89.1 70 53% 94 30.2 1022.8
18 13:51 SE 13 G 24 10.00 Fair CLR 88 70 88 75 55% 93 30.21 1023.0
18 12:51 SE 10 G 17 10.00 Fair CLR 86 69.1 57% 90 30.22 1023.3
18 11:51 SW 7 G 16 10.00 Fair CLR 84.9 69.1 59% 89 30.23 1023.7
18 10:51 S 8 10.00 Fair CLR 82 68 63% 85 30.24 1023.9
18 09:51 S 6 10.00 Fair CLR 79 66 65% 81 30.23 1023.8
18 08:51 SW 8 10.00 Fair CLR 77 66 69% 79 30.23 1023.6
18 07:51 S 8 10.00 Fair CLR 75 64.9 75 71.1 71% 77 30.22 1023.3
18 06:51 S 8 10.00 Fair CLR 72 64 76% 30.21 1023.1
18 05:51 SW 7 10.00 Fair CLR 71.1 64 79% 30.2 1022.7
18 04:51 SW 7 10.00 Fair CLR 71.1 64 79% 30.19 1022.1
18 03:51 S 8 10.00 Fair CLR 72 64 76% 30.17 1021.5
18 02:51 S 8 10.00 Fair CLR 73 63 71% 30.17 1021.5
18 01:51 S 8 10.00 Fair CLR 73 63 80.1 73 71% 30.16 1021.4
18 00:51 S 3 10.00 Fair CLR 73.9 62.1 67% 30.16 1021.3
17 23:51 S 6 10.00 Fair CLR 75 62.1 64% 77 30.16 1021.4
17 22:51 S 8 10.00 Fair CLR 77 63 62% 79 30.15 1020.9
17 21:51 S 12 10.00 Fair CLR 79 64 60% 81 30.14 1020.7
17 20:51 S 7 10.00 Fair CLR 79 64.9 62% 81 30.12 1019.9
17 19:51 S 12 G 21 10.00 Fair CLR 80.1 64.9 89.1 80.1 60% 82 30.09 1018.9
17 18:51 S 10 10.00 Fair CLR 82 66 58% 84 30.09 1018.8
17 17:51 S 8 10.00 Fair CLR 84 64.9 53% 86 30.08 1018.5
17 16:51 SE 12 G 25 10.00 A Few Clouds FEW060 87.1 64 46% 88 30.1 1019.2
17 15:51 S 13 10.00 Mostly Cloudy BKN060 84.9 64 50% 86 30.1 1019.4
17 14:51 S 10 10.00 Mostly Cloudy BKN055 84.9 64 50% 86 30.12 1019.8
17 13:51 S 15 G 24 10.00 Fair CLR 84.9 64 87.1 70 50% 86 30.12 1019.8
17 12:51 S 14 G 23 10.00 Fair CLR 84 63 49% 85 30.14 1020.5
17 11:51 SW 10 G 21 10.00 Fair CLR 81 61 51% 82 30.16 1021.2
17 10:51 S 12 10.00 Fair CLR 79 61 54% 80 30.18 1021.9
17 09:51 S 8 10.00 Partly Cloudy SCT080 75.9 62.1 62% 78 30.19 1022.4
17 08:51 S 7 G 18 10.00 Mostly Cloudy BKN060 73 61 66% 30.21 1022.9
17 07:51 S 7 10.00 Partly Cloudy FEW060 SCT075 70 62.1 70 62.1 76% 30.21 1023.0
17 06:51 S 6 10.00 Overcast OVC075 68 63 84% 30.2 1022.5
17 05:51 S 5 10.00 Fair CLR 64.9 62.1 90% 30.19 1022.4
17 04:51 Calm 10.00 Fair CLR 63 60.1 90% 30.19 1022.3
17 03:51 Calm 10.00 Fair CLR 64 60.1 87% 30.2 1022.5
17 02:51 Calm 10.00 Overcast OVC013 64.9 61 87% 30.2 1022.5
17 01:51 Calm 10.00 A Few Clouds FEW018 64 59 70 63 84% 30.21 1022.8
17 00:51 SW 5 10.00 Fair CLR 64 57.9 81% 30.21 1022.9
16 23:51 SE 3 10.00 Fair CLR 66 57.9 75% 30.21 1022.9
16 22:51 S 5 10.00 Fair CLR 66 57.9 75% 30.21 1023.0
16 21:51 S 7 10.00 Fair CLR 66.9 57.9 73% 30.21 1022.8
16 20:51 S 8 10.00 Fair CLR 68 57.9 70% 30.2 1022.5
16 19:51 SE 10 G 22 10.00 Fair CLR 70 55.9 77 70 61% 30.19 1022.3
16 18:51 S 10 10.00 Fair CLR 72 55 55% 30.19 1022.1
16 17:51 S 12 G 21 10.00 Fair CLR 73 55.9 55% 30.18 1022.1
16 16:51 S 9 10.00 Fair CLR 73.9 55.9 54% 30.19 1022.2
16 15:51 S 9 10.00 Fair CLR 73.9 54 50% 30.2 1022.7
16 14:51 S 12 G 21 10.00 Fair CLR 75.9 53.1 45% 78 30.21 1022.9
16 13:51 Vrbl 5 10.00 Fair CLR 75.9 46 75.9 64.9 35% 78 30.22 1023.4
Date Time (edt) Wind (mph) Vis. (mi.) Weather Sky Cond. Air Dwpt Max. Min. Relative Humidity Wind Chill (°F) Heat Index (°F) altimeter (in) sea level (mb) 1 hr 3 hr 6 hr
6 hour
Temperature (ºF) Pressure Precipitation (in)